SDO                     
1 36395U 10005A   19259.24343509 -.00000060  00000-0  00000+0 0  9994
2 36395  29.8663 126.0041 0001612  32.8104 181.6761  1.00276274 35304
ATLAS 5 CENTAUR R/B     
1 36396U 10005B   19256.18476304 -.00000154  00000-0  00000+0 0  9999
2 36396  28.7127  92.6062 6386533 281.3233  17.5163  2.28845000 80131